Other Public Products
Issued by NWS Grand Forks, ND

Home | Current Version | Previous Version | Text Only | Print | Product List | Glossary Off
Versions: 1 2 3 4 5 6 7 8 9 10 11 12 13 14 15 16 17 18 19 20 21 22 23 24 25 26 27 28 29 30 31 32 33 34 35 36 37 38 39 40 41 42 43 44 45 46 47 48 49 50

000
FPUS83 KFGF 050110
OPUFGF
PRAIRIE TO PINES WEATHER ROUNDUP
NATIONAL WEATHER SERVICE EASTERN NORTH DAKOTA/GRAND FORKS ND
700 PM CST WED MAR 04 2015

 **SATELLITE DATA USED TO AUGMENT SKY COVER AT AUTOMATED STATIONS**
 *****  WEATHER ACROSS EASTERN NORTH DAKOTA  *****

CITY           SKY/WX    TMP DP  RH WIND       PRES   REMARKS
GRAND FORKS    CLEAR     -4 -13  65 NW6       30.38R WCI -16
GRAND FORKS AF CLEAR     -2 -12  61 NW8       30.37R WCI -17
GRAND CITY NWS   N/A     -2 N/A N/A N6          N/A  WCI -14
BUXTON         NOT AVBL
DEVILS LAKE    CLEAR     -6 -17  59 W7        30.32S WCI -20
FARGO          CLEAR      2  -8  63 NW8       30.39R WCI -12
WAHPETON ARPT  CLEAR      1  -6  71 NW9       30.39R WCI -14
$$

 *****  WEATHER ACROSS CENTRAL AND WESTERN NORTH DAKOTA  *****

CITY           SKY/WX    TMP DP  RH WIND       PRES   REMARKS
JAMESTOWN      CLEAR     -3 -11  68 NW9       30.34R WCI -19
BISMARCK       CLEAR      3  -9  57 N7        30.35R WCI  -9
MINOT          CLEAR     -3 -13  62 W5        30.31S WCI -13
MINOT AFB      CLEAR     -6 -12  72 W6        30.31S WCI -18
GARRISON         N/A     -6 -13  71 NW6       30.30S WCI -19
WILLISTON        N/A    N/A N/A N/A MISG      30.26F
DICKINSON      CLEAR      6  -9  50 CALM      30.19F
HETTINGER      CLEAR      6  -9  50 NW5       30.22S WCI  -3
$$

 *****  OTHER OBSERVATIONS NORTHEAST NORTH DAKOTA  *****

CITY           SKY/WX    TMP DP  RH WIND       PRES   REMARKS
WALHALLA         N/A     -2 -13  60 W6        30.35S WCI -14
LANGDON        NOT AVBL
CAVALIER       FAIR      -2 -11  65 W8        30.36S WCI -17
GRAFTON        NOT AVBL
CANDO          FAIR      -8 -13  77 W13       30.32S WCI -28
FORT TOTTEN      N/A     -5 -15  62 NW5       29.95  WCI -16
ROLLA          FAIR      -4 -15  59 W6        30.27R WCI -16
RUGBY          FAIR      -8 -13  77 NW7       30.32F WCI -22
 ***** THE ABOVE OBSERVATIONS ARE NON NWS ARE NOT QUALITY
        CONTROLLED AND MAY MIS-REPORT RAIN FOR SNOW...
$$

 *****  OTHER OBSERVATIONS SOUTHEAST NORTH DAKOTA *****

CITY           SKY/WX    TMP DP  RH WIND       PRES   REMARKS
COOPERSTOWN    NOT AVBL
VALLEY CITY    FAIR      -2  -9  71 NW10      30.34S WCI -19
OAKES            N/A      0  -9  65 NW7       30.37R WCI -13
GWINNER        CLEAR      3  -8  60 W8        30.38R WCI -10
SHEYENNE NWR     N/A      0  -9  67 NW5       29.95S WCI -10
BUFFALO        NOT AVBL
WYNDMERE       NOT AVBL
 ***** THE ABOVE OBSERVATIONS ARE NON NWS ARE NOT QUALITY
       CONTROLLED AND MAY MIS-REPORT RAIN FOR SNOW...
$$

  *****  WEATHER ACROSS NORTHERN MINNESOTA  *****

CITY           SKY/WX    TMP DP  RH WIND       PRES   REMARKS
FLAG ISLAND    CLEAR     -2 -15  55 W9        30.26R WCI -18
WARROAD        CLEAR     -6 -13  71 W7        30.29R WCI -20
ROSEAU         CLEAR     -4 -11  71 W9        30.31R WCI -20
HALLOCK        NOT AVBL
THF RVR FALLS  CLEAR     -6  -6 100 NW6       30.33R WCI -18
HALSTAD        NOT AVBL
FOSSTON        CLEAR     -9 -15  77 NW5       30.32S WCI -21
BAUDETTE       CLEAR     -3 -14  59 W9        30.25R WCI -19
WASKISH        CLEAR     -6 -11  77 W7        30.27S WCI -20
CROOKSTON      CLEAR     -2  -8  78 NW3       30.38S
$$
  *****  WEATHER ACROSS CENTRAL AND WEST MINNESOTA  *****

CITY           SKY/WX    TMP DP  RH WIND       PRES   REMARKS
BEMIDJI        CLEAR     -7 -14  71 W8        30.28R WCI -22
PARK RAPIDS    CLEAR     -5 -15  62 NW10      30.27R WCI -23
WADENA         CLEAR     -6 -11  77 NW6       30.30R WCI -18
DETROIT LAKES  PTCLDY     0  -6  78 N10       30.32R WCI -17
MOORHEAD       CLEAR      1  -4  78 NW5       30.38R WCI  -8
FERGUS FALLS   CLEAR      0  -9  65 NW9       30.39R WCI -16
ELBOW LAKE     FAIR      -2  -8  76 NW10      30.34R WCI -18
MORRIS MN      CLEAR     -2  -9  71 NW8       30.35R WCI -17
STAPLES        CLEAR     -6 -13  71 W7        30.30R WCI -20
WHEATON        CLEAR     -2 -11  65 W7        30.40S WCI -16
$$
  *****  WEATHER ELSEWHERE ACROSS MINNESOTA  *****

CITY           SKY/WX    TMP DP  RH WIND       PRES   REMARKS
DULUTH         CLEAR     -1 -16  48 W8        30.20R WCI -15
INTRNTL FALLS  CLEAR     -7 -16  65 W3        30.24R
ELY            CLEAR     -6 -17  59 W5        30.20R WCI -17
CLOQUET        CLEAR      0 -17  46 W6        30.23R WCI -12
BRAINERD       CLEAR     -2 -14  56 W7        30.29R WCI -15
HIBBING        CLEAR     -3 -16  53 NW8       30.22R WCI -18
ALEXANDRIA     CLEAR     -5 -12  72 NW8       30.31R WCI -20
SAINT CLOUD    CLEAR     -1 -13  56 NW9       30.33R WCI -16
MINNEAPOLIS    PTCLDY     3 -10  54 NW15      30.33R WCI -16
$$

  *****  WEATHER ACROSS SOUTH DAKOTA  *****

CITY           SKY/WX    TMP DP  RH WIND       PRES   REMARKS
SIOUX FALLS    CLEAR      3  -7  63 NW10      30.36R WCI -12
BROOKINGS      NOT AVBL
WATERTOWN      CLEAR     -3 -13  62 NW10      30.32R WCI -20
HURON          CLEAR      1  -6  72 NE6       30.39R WCI -10
SISSETON       NOT AVBL
ABERDEEN       CLEAR      0 -13  54 NW9       30.40R WCI -15
MITCHELL       CLEAR      4  -6  63 N6        30.40R WCI  -7
PIERRE         CLEAR      8  -7  50 N9        30.32S WCI  -5
MOBRIDGE       CLEAR      5  -8  55 N7        30.31R WCI  -7
RAPID CITY     CLEAR     10  -2  58 N8        30.21R WCI  -2
$$

  *****  SOME WEATHER IN NEARBY STATES *****

CITY           SKY/WX    TMP DP  RH WIND       PRES   REMARKS
GLASGOW MT     CLEAR     14  -1  51 SE10      30.14F WCI   1
GREAT FALLS MT CLEAR     33  10  38 SW20      29.98F WCI  21
CHEYENNE WY    CLEAR     15  -6  39 NW8       30.07R WCI   4
SCOTTSBLUFF NE CLEAR     20   3  48 NW10      30.18R WCI   9
OMAHA NE       PTCLDY    20  -1  40 N14       30.38R WCI   7
DES MOINES IA  PTCLDY    19   3  49 NW15      30.34R WCI   5
DAVENPORT IA   PTCLDY    11   0  61 NW9       30.31R WCI  -2
CHICAGO IL     MOCLDY    16  -3  43 NW13      30.23R WCI   2
EAU CLAIRE WI  CLEAR      5 -12  45 NW8       30.27R WCI  -8
LA CROSSE WI   CLEAR      9  -4  55 W8        30.31R WCI  -3
$$

  *****  SOME NATIONAL WEATHER *****

CITY           SKY/WX    TMP DP  RH WIND       PRES   REMARKS
LA GUARDIA NY  CLOUDY    43  39  86 S10       29.87F
RALEIGH NC     MOCLDY    66  52  60 SW12      29.88R
ATLANTA GA     MOCLDY    68  59  73 S8        29.93S
NEW ORLEANS LA PTCLDY    75  68  78 S9        29.90R
OKLAHOMA CITY  LGT SNOW  24  19  81 N16G24    30.28F VSB 3/4 WCI  11
ALBUQUERQUE NM PTCLDY    47  13  25 NW15      30.01R
SALT LAKE CITY PTCLDY    37  18  46 NW7       30.26R
LOS ANGELES CA PTCLDY    62  45  53 W12       30.08S
BOISE ID       CLEAR     43   9  24 NW8       30.27S
SEATTLE WA     MOCLDY    53  21  28 N9        30.27F
$$

*** WEATHER ACROSS MANITOBA...SASKATCHEWAN AND ONTARIO ***
                ***ONTARIO***

CITY           SKY/WX    TMP DP  RH WIND       PRES   REMARKS
GERALDTON      CLEAR     -6 -15  65 W3        30.06R
THUNDER BAY    CLEAR      1 -13  51 SW5       30.21R WCI  -8
SIOUX LOOKOUT  CLEAR     -6 -18  54 W3        30.15R
TORONTO        CLOUDY    25  14  63 NW15      29.96R WCI  12
BIG TROUT LK   PTCLDY    -6 -13  71 W8        30.04R WCI -21
PICKLE LAKE    CLEAR     -2 -17  50 W8        30.06R WCI -17
DRYDEN         CLEAR     -2 -15  55 W8        30.16R WCI -17
KENORA         CLEAR     -4 -15  59 W8        30.21R WCI -19
$$
                *** MANITOBA***

CITY           SKY/WX    TMP DP  RH WIND       PRES   REMARKS
BRANDON        CLEAR     -9 -18  64 W10       30.30S WCI -28
DAUPHIN        CLEAR     -4 -15  59 W22       30.27S WCI -28
ISLAND LAKE    CLEAR     -6 -17  59 W9        30.10R WCI -22
PILOT MOUND      N/A     -8 -15  71 W5          N/A  WCI -19
THE PAS        PTCLDY    -4 -18  50 SW6       30.16F WCI -16
THOMPSON       CLEAR     -8 -18  59 W5        30.07S WCI -19
WINNIPEG       CLEAR     -6 -15  65 W6        30.34S WCI -18
LYNN LAKE      CLEAR     -8 -18  59 W7        30.01F WCI -22
CHURCHILL      CRYSTALS -17 -26  63 NW10      30.02R WCI -37
GILLAM         CLEAR     -9 -20  59 W12       30.04S WCI -29
$$
                ***SASKATCHEWAN***

CITY           SKY/WX    TMP DP  RH WIND       PRES   REMARKS
ESTEVAN        PTCLDY    -9 -17  70 SW5       30.26F WCI -21
KINDERSLEY     PTCLDY     7  -2  66 S12       30.02F WCI  -9
LLOYDMINSTER   MOCLDY     5  -2  72 S9        29.96F WCI  -9
PRINCE ALBERT  MOCLDY    -4 -15  59 SW9       30.15F WCI -20
REGINA         PTCLDY    -9 -17  70 SE10      30.21F WCI -28



USA.gov is the U.S. government's official web portal to all federal, state and local government web resources and services.